DISPA EDRY-EDSB

Flight info

Callsign DISPA
Flight time 0h 13m
Altitude 3500
Route 4914N00829E
Aircraft BE58/L-SDFGRY/C

Departure

Time 2026-05-06 15:51
Airport Speyer Airfield (EDRY)

Arrival

Time 2026-05-06 16:04
Airport Karlsruhe Baden-Baden Airport (EDSB)
Time Latitude Longitude Altitude Speed Heading
2026-05-06 15:43 49.30308 8.45408 311 ft 0 kts 256°
2026-05-06 15:46 49.30308 8.45407 311 ft 1 kts 256°
2026-05-06 15:46 49.30313 8.45362 311 ft 8 kts 333°
2026-05-06 15:46 49.30397 8.45335 310 ft 17 kts 350°
2026-05-06 15:46 49.30529 8.45280 310 ft 20 kts 346°
2026-05-06 15:47 49.30651 8.45230 314 ft 17 kts 344°
2026-05-06 15:47 49.30764 8.45175 314 ft 17 kts 340°
2026-05-06 15:47 49.30846 8.45118 316 ft 7 kts 302°
2026-05-06 15:47 49.30848 8.45112 316 ft 0 kts 291°
2026-05-06 15:49 49.30845 8.45054 316 ft 9 kts 244°
2026-05-06 15:49 49.30826 8.45033 316 ft 2 kts 177°
2026-05-06 15:49 49.30819 8.45035 316 ft 0 kts 168°
2026-05-06 15:49 49.30743 8.45122 315 ft 10 kts 138°
2026-05-06 15:50 49.30739 8.45128 314 ft 0 kts 138°
2026-05-06 15:50 49.30737 8.45133 315 ft 3 kts 111°
2026-05-06 15:50 49.30781 8.45159 315 ft 11 kts 359°
2026-05-06 15:50 49.30847 8.45106 316 ft 11 kts 285°
2026-05-06 15:51 49.30768 8.45052 316 ft 29 kts 170°
2026-05-06 15:51 49.30240 8.45257 336 ft 113 kts 166°
2026-05-06 15:51 49.29413 8.45609 702 ft 131 kts 163°
2026-05-06 15:51 49.28585 8.46081 1170 ft 127 kts 157°
2026-05-06 15:52 49.27763 8.46678 1475 ft 133 kts 156°
2026-05-06 15:52 49.26916 8.47266 1815 ft 136 kts 155°
2026-05-06 15:52 49.26065 8.47923 2167 ft 135 kts 155°
2026-05-06 15:52 49.25160 8.48317 2456 ft 139 kts 177°
2026-05-06 15:53 49.24203 8.48121 2791 ft 137 kts 200°
2026-05-06 15:53 49.23350 8.47468 3053 ft 143 kts 212°
2026-05-06 15:53 49.22484 8.46700 3396 ft 139 kts 210°
2026-05-06 15:53 49.21614 8.46015 3625 ft 145 kts 207°
2026-05-06 15:54 49.20675 8.45337 3698 ft 157 kts 207°
2026-05-06 15:54 49.19642 8.44544 3589 ft 173 kts 207°
2026-05-06 15:54 49.18536 8.43693 3502 ft 182 kts 207°
2026-05-06 15:54 49.17399 8.42818 3494 ft 184 kts 207°
2026-05-06 15:55 49.16252 8.41937 3490 ft 184 kts 207°
2026-05-06 15:55 49.15108 8.41059 3488 ft 185 kts 207°
2026-05-06 15:55 49.13957 8.40177 3489 ft 185 kts 207°
2026-05-06 15:55 49.12807 8.39296 3485 ft 185 kts 207°
2026-05-06 15:56 49.11673 8.38428 3485 ft 185 kts 207°
2026-05-06 15:56 49.10527 8.37549 3487 ft 184 kts 207°
2026-05-06 15:56 49.09383 8.36674 3485 ft 184 kts 207°
2026-05-06 15:56 49.08240 8.35800 3486 ft 184 kts 207°
2026-05-06 15:57 49.07097 8.34921 3486 ft 184 kts 208°
2026-05-06 15:57 49.05961 8.34002 3485 ft 186 kts 209°
2026-05-06 15:57 49.04816 8.33057 3489 ft 187 kts 209°
2026-05-06 15:57 49.03665 8.32111 3486 ft 188 kts 209°
2026-05-06 15:58 49.02510 8.31160 3488 ft 189 kts 209°
2026-05-06 15:58 49.01355 8.30210 3493 ft 189 kts 209°
2026-05-06 15:58 49.00198 8.29260 3487 ft 189 kts 209°
2026-05-06 15:58 48.99042 8.28306 3487 ft 189 kts 209°
2026-05-06 15:59 48.97888 8.27353 3488 ft 189 kts 209°
2026-05-06 15:59 48.96758 8.26338 3488 ft 189 kts 214°
2026-05-06 15:59 48.95687 8.25257 3483 ft 176 kts 214°
2026-05-06 15:59 48.94704 8.24265 3471 ft 164 kts 214°
2026-05-06 16:00 48.93782 8.23339 3472 ft 155 kts 214°
2026-05-06 16:00 48.92901 8.22457 3475 ft 150 kts 214°
2026-05-06 16:00 48.92042 8.21599 3474 ft 147 kts 214°
2026-05-06 16:00 48.91197 8.20753 3473 ft 144 kts 214°
2026-05-06 16:01 48.90346 8.19901 3399 ft 149 kts 214°
2026-05-06 16:01 48.89477 8.19032 3325 ft 150 kts 214°
2026-05-06 16:01 48.88601 8.18158 3253 ft 151 kts 214°
2026-05-06 16:01 48.87722 8.17277 3181 ft 152 kts 214°
2026-05-06 16:02 48.86841 8.16396 3105 ft 151 kts 214°
2026-05-06 16:02 48.85960 8.15515 3034 ft 152 kts 214°
2026-05-06 16:02 48.85075 8.14630 2960 ft 153 kts 214°
2026-05-06 16:02 48.84184 8.13736 2885 ft 154 kts 214°
2026-05-06 16:03 48.83271 8.12894 2587 ft 147 kts 207°
2026-05-06 16:03 48.82344 8.12214 2009 ft 151 kts 211°
2026-05-06 16:03 48.81492 8.11395 1445 ft 145 kts 213°
2026-05-06 16:03 48.80659 8.10599 940 ft 137 kts 213°
2026-05-06 16:04 48.79888 8.09873 657 ft 119 kts 213°
2026-05-06 16:04 48.79224 8.09253 516 ft 105 kts 211°
2026-05-06 16:04 48.78635 8.08705 422 ft 92 kts 212°
2026-05-06 16:04 48.78185 8.08265 410 ft 49 kts 212°
2026-05-06 16:05 48.77947 8.08053 408 ft 20 kts 201°
2026-05-06 16:05 48.77850 8.08106 406 ft 15 kts 127°
2026-05-06 16:05 48.77792 8.08201 407 ft 11 kts 183°
2026-05-06 16:05 48.77731 8.08149 407 ft 11 kts 212°
2026-05-06 16:06 48.77643 8.08068 407 ft 19 kts 212°
2026-05-06 16:06 48.77513 8.07947 407 ft 23 kts 209°
2026-05-06 16:06 48.77419 8.08005 407 ft 20 kts 118°
2026-05-06 16:06 48.77365 8.08180 407 ft 18 kts 40°
2026-05-06 16:07 48.77406 8.08196 407 ft 0 kts 208°